Tracking 29892 objects as of 21-Nov-2024
HD Live streaming from Space Station
objects crossing your sky now

THORAD DELTA 1 DEB

Track THORAD DELTA 1 DEB now!
10-day predictions


NORAD ID: 10990
Int'l Code: 1974-089EK
Perigee: 1,351.0 km
Apogee: 1,467.4 km
Inclination: 101.0 °
Period: 113.8 minutes
Semi major axis: 7780 km
RCS: 0.0954 m2 (small)
Launch date: November 15, 1974
Source: United States (US)
Launch site: AIR FORCE WESTERN TEST RANGE (AFWTR)

Note: This is SATELLITE DEBRIS
Your satellite tracking list
Your tracking list is empty




NASA's NSSDC Master Catalog

Two Line Element Set (TLE):
1 10990U 74089EK  24325.51959455 -.00000024  00000-0  97114-4 0  9999
2 10990 101.0487 337.6625 0074815 126.0167  27.1597 12.65066469308762
Source of the keplerian elements: AFSPC